EW9060 Weather Reports


time (UTC)temp
C
wind
direction
speed
KPH
gust
KPH
rain 1hr
cm
rain 24hr
cm
rain mn
cm
humidity
%
barometer
mb
20260904083105 16 207 1.6 11.3 0.00 0.05 0.00 88 1012.2
20260904081549 17 149 3.2 11.3 0.00 0.05 0.00 89 1012.3
20260904080046 17 155 1.6 9.7 0.00 0.05 0.00 89 1012.3
20260904074601 17 157 0.0 12.9 0.00 0.05 0.00 89 1012.2
20260904073044 17 198 1.6 8.0 0.05 0.05 0.00 88 1012.2
20260904071541 17 142 1.6 4.8 0.05 0.05 0.00 88 1012.0
20260904070039 17 120 1.6 9.7 0.05 0.05 0.00 88 1011.9
20260904064538 17 102 0.0 4.8 0.03 0.03 0.03 88 1012.0
20260904063043 17 99 1.6 6.4 0.00 0.00 0.00 88 1012.0
20260904061540 17 96 0.0 6.4 0.00 0.00 0.00 87 1012.2
20260904060035 17 81 0.0 3.2 0.00 0.00 0.00 86 1012.2
20260904054536 17 74 0.0 3.2 0.00 0.00 0.00 86 1012.3
20260904053037 17 44 0.0 4.8 0.00 0.00 0.00 85 1012.3
20260904051534 18 59 0.0 3.2 0.00 0.00 0.00 85 1012.3
20260904050035 18 349 0.0 0.0 0.00 0.00 0.00 85 1012.4
20260904044533 18 323 0.0 0.0 0.00 0.00 0.00 84 1012.4
20260904043032 18 323 0.0 0.0 0.00 0.00 0.00 84 1012.4
20260904041534 18 64 0.0 0.0 0.00 0.00 0.00 83 1012.3
20260904040031 18 81 0.0 0.0 0.00 0.00 0.00 81 1012.3
20260904034531 18 100 0.0 0.0 0.00 0.00 0.00 80 1012.1
20260904033032 18 87 1.6 4.8 0.00 0.00 0.00 80 1011.9
20260904031529 18 69 0.0 4.8 0.00 0.00 0.00 80 1011.9
20260904030027 18 51 0.0 4.8 0.00 0.00 0.00 78 1012.0
20260904024527 19 316 0.0 4.8 0.00 0.00 0.00 77 1012.1
20260904023025 20 307 0.0 9.7 0.00 0.00 0.00 75 1012.1
20260904021534 20 304 3.2 12.9 0.00 0.00 0.00 71 1012.2
20260904020024 20 275 4.8 12.9 0.00 0.00 0.00 70 1012.0
20260904014523 21 280 0.0 12.9 0.00 0.00 0.00 70 1012.1
20260904013024 21 292 4.8 9.7 0.00 0.00 0.00 70 1012.2
20260904011522 21 292 3.2 14.5 0.00 0.00 0.00 69 1012.2
20260904010021 21 242 6.4 11.3 0.00 0.00 0.00 69 1012.2
20260904004519 21 261 3.2 16.1 0.00 0.00 0.00 68 1012.4
20260904003019 22 232 6.4 17.7 0.00 0.00 0.00 67 1012.4
20260904001522 22 281 8.0 17.7 0.00 0.00 0.00 66 1012.4
20260904000019 22 190 3.2 16.1 0.00 0.00 0.00 66 1012.3
20260903234516 22 290 6.4 27.4 0.00 0.00 0.00 65 1012.3
20260903233015 23 165 4.8 17.7 0.00 0.00 0.00 63 1012.5
20260903231512 23 205 9.7 24.1 0.00 0.00 0.00 62 1012.6
20260903230013 23 258 9.7 22.5 0.00 0.00 0.00 62 1012.9
20260903224506 23 263 11.3 22.5 0.00 0.00 0.00 63 1012.9
20260903223004 23 227 8.0 19.3 0.00 0.00 0.00 63 1013.0
20260903221503 23 188 6.4 19.3 0.00 0.00 0.00 63 1013.1
20260903220002 23 242 4.8 16.1 0.00 0.00 0.00 63 1013.3
20260903214501 23 161 3.2 17.7 0.00 0.00 0.00 63 1013.3
20260903213058 23 254 6.4 19.3 0.00 0.00 0.00 62 1013.3
20260903211557 23 181 4.8 14.5 0.00 0.00 0.00 62 1013.5
20260903210059 23 171 8.0 25.7 0.00 0.00 0.00 62 1013.9
20260903204550 23 252 6.4 22.5 0.00 0.00 0.00 62 1013.9
20260903203050 22 194 6.4 19.3 0.00 0.00 0.00 62 1014.0
20260903201543 23 153 8.0 22.5 0.00 0.00 0.00 62 1014.1
20260903200039 22 182 4.8 24.1 0.00 0.00 0.00 63 1014.2
20260903194535 21 240 3.2 16.1 0.00 0.00 0.00 66 1014.4
20260903193033 21 165 4.8 12.9 0.00 0.00 0.00 67 1014.6
20260903191532 21 13 3.2 19.3 0.00 0.00 0.00 66 1014.7
20260903190031 21 13 4.8 20.9 0.00 0.00 0.00 66 1014.9
20260903184529 21 239 6.4 19.3 0.00 0.00 0.00 65 1015.1
20260903183029 22 175 8.0 14.5 0.00 0.00 0.00 64 1015.1
20260903181526 22 217 6.4 16.1 0.00 0.00 0.00 65 1015.1
20260903180031 22 194 6.4 14.5 0.00 0.00 0.00 66 1015.0
20260903174521 21 186 3.2 9.7 0.00 0.00 0.00 69 1015.1
20260903173017 20 242 1.6 11.3 0.00 0.00 0.00 71 1015.2
20260903171524 20 174 1.6 14.5 0.00 0.00 0.00 74 1015.2
20260903170026 18 141 4.8 16.1 0.00 0.00 0.00 75 1015.3
20260903164507 18 138 3.2 14.5 0.00 0.00 0.00 77 1015.5
20260903163007 18 113 3.2 9.7 0.00 0.00 0.00 78 1015.5
20260903161501 17 182 1.6 9.7 0.00 0.00 0.00 79 1015.6
20260903160100 17 186 4.8 11.3 0.00 0.00 0.00 80 1015.7
20260903154558 16 147 3.2 12.9 0.00 0.00 0.00 79 1015.8
20260903153057 16 132 0.0 12.9 0.00 0.00 0.00 80 1015.9
20260903151557 16 153 3.2 14.5 0.00 0.00 0.00 80 1015.8
20260903150110 16 163 4.8 12.9 0.00 0.00 0.00 80 1015.8
20260903144601 16 141 6.4 14.5 0.00 0.00 0.00 81 1015.8
20260903143056 16 163 3.2 16.1 0.00 0.00 0.00 81 1015.8
20260903141554 16 153 6.4 14.5 0.00 0.00 0.00 81 1015.6
20260903140053 16 152 1.6 12.9 0.00 0.00 0.00 81 1015.6
20260903134603 16 119 3.2 11.3 0.00 0.00 0.00 81 1015.4
20260903133051 16 139 3.2 12.9 0.00 0.00 0.00 80 1015.3
20260903131550 16 72 1.6 11.3 0.00 0.00 0.00 81 1015.4
20260903130053 16 137 4.8 11.3 0.00 0.00 0.00 80 1015.4
20260903124648 16 133 3.2 11.3 0.00 0.00 0.00 80 1015.6
20260903123048 16 159 3.2 14.5 0.00 0.00 0.00 80 1015.5
20260903121552 16 126 3.2 11.3 0.00 0.00 0.00 80 1015.5
20260903120053 16 155 3.2 11.3 0.00 0.00 0.00 80 1015.6
20260903114543 16 179 1.6 11.3 0.00 0.00 0.00 79 1015.6
20260903113047 16 188 3.2 14.5 0.00 0.00 0.00 79 1015.8
20260903111540 16 130 0.0 12.9 0.00 0.00 0.00 80 1015.9
20260903110040 16 124 3.2 9.7 0.00 0.00 0.00 80 1015.9
20260903104539 16 153 3.2 11.3 0.00 0.00 0.00 80 1015.9
20260903103038 16 139 3.2 11.3 0.00 0.00 0.00 80 1015.9
20260903101538 16 143 3.2 11.3 0.00 0.00 0.00 80 1016.0
20260903100037 16 218 1.6 8.0 0.00 0.00 0.00 79 1015.9
20260903094542 16 196 0.0 9.7 0.00 0.00 0.00 79 1015.9
20260903093034 16 147 1.6 12.9 0.00 0.00 0.00 78 1016.0
20260903091532 16 194 1.6 8.0 0.00 0.00 0.00 76 1016.3
20260903090030 16 164 0.0 11.3 0.00 0.00 0.00 75 1016.3
20260903084539 16 150 1.6 8.0 0.00 0.00 0.00 74 1016.2